Time,TemperatureF,DewpointF,PressureIn,WindDirection,WindDirectionDegrees,WindSpeedMPH,WindSpeedGustMPH,Humidity,HourlyPrecipIn,Conditions,Clouds,dailyrainin,SoftwareType,DateUTC
2013-05-27 00:00:00,66.0,60.0,30.00,SSE,157,0.0,2.0,81,0.00,,OVC030,0.00,VWS V14.00,2013-05-27 05:00:00,
2013-05-27 00:01:00,65.7,59.7,30.00,SSE,157,0.0,1.0,81,0.00,,CLR,0.00,VWS V14.00,2013-05-27 05:01:00,
2013-05-27 00:06:00,65.7,59.7,30.00,SSE,157,0.0,1.0,81,0.00,,CLR,0.00,VWS V14.00,2013-05-27 05:06:00,
2013-05-27 00:11:00,65.7,60.1,30.01,SSE,157,0.0,1.0,82,0.00,,CLR,0.00,VWS V14.00,2013-05-27 05:11:00,
2013-05-27 00:16:00,65.7,60.1,30.01,SSE,157,0.0,1.0,82,0.00,,CLR,0.00,VWS V14.00,2013-05-27 05:16:00,
2013-05-27 00:21:00,65.7,60.4,30.01,SSE,157,1.0,1.0,83,0.00,,CLR,0.00,VWS V14.00,2013-05-27 05:21:00,
2013-05-27 00:26:00,65.8,60.2,30.00,SSE,157,0.0,1.0,82,0.00,,CLR,0.00,VWS V14.00,2013-05-27 05:26:00,
2013-05-27 00:30:00,65.7,60.4,30.00,SSE,157,1.0,1.0,83,0.00,,OVC030,0.00,VWS V14.00,2013-05-27 05:30:00,
2013-05-27 00:31:00,65.9,60.3,30.00,SSE,157,1.0,1.0,82,0.00,,CLR,0.00,VWS V14.00,2013-05-27 05:31:00,
2013-05-27 00:36:00,65.9,60.3,30.00,SSE,156,0.0,5.0,82,0.00,,CLR,0.00,VWS V14.00,2013-05-27 05:36:00,
2013-05-27 00:41:00,66.0,60.3,30.00,SSE,156,0.0,5.0,82,0.00,,CLR,0.00,VWS V14.00,2013-05-27 05:41:00,
2013-05-27 00:46:00,66.0,60.3,30.00,SSE,156,0.0,5.0,82,0.00,,CLR,0.00,VWS V14.00,2013-05-27 05:46:00,
2013-05-27 00:51:00,65.9,60.3,30.00,SSE,156,0.0,5.0,82,0.00,,CLR,0.00,VWS V14.00,2013-05-27 05:51:00,
2013-05-27 00:56:00,65.7,60.1,30.00,SSE,156,1.0,4.0,82,0.00,,CLR,0.00,VWS V14.00,2013-05-27 05:56:00,
2013-05-27 01:00:00,65.9,60.3,30.00,SSE,156,0.0,5.0,82,0.00,,OVC030,0.00,VWS V14.00,2013-05-27 06:00:00,
2013-05-27 01:01:00,65.7,60.1,30.00,SSE,156,0.0,4.0,82,0.00,,SCT120,0.00,VWS V14.00,2013-05-27 06:01:00,
2013-05-27 01:06:00,65.5,59.9,30.00,SSE,156,0.0,4.0,82,0.00,,SCT120,0.00,VWS V14.00,2013-05-27 06:06:00,
2013-05-27 01:11:00,65.4,59.8,30.00,SSE,156,0.0,4.0,82,0.00,,SCT120,0.00,VWS V14.00,2013-05-27 06:11:00,
2013-05-27 01:16:00,65.3,60.0,30.00,SSE,156,0.0,4.0,83,0.00,,SCT120,0.00,VWS V14.00,2013-05-27 06:16:00,
2013-05-27 01:21:00,65.2,59.9,30.00,SSE,156,0.0,4.0,83,0.00,,BKN120,0.00,VWS V14.00,2013-05-27 06:21:00,
2013-05-27 01:26:00,64.9,60.0,29.99,SSE,156,0.0,0.0,84,0.00,,BKN120,0.00,VWS V14.00,2013-05-27 06:26:00,
2013-05-27 01:30:00,65.2,59.9,29.99,SSE,156,0.0,4.0,83,0.00,,OVC030,0.00,VWS V14.00,2013-05-27 06:30:00,
2013-05-27 01:31:00,64.4,59.5,29.99,SSE,156,0.0,1.0,84,0.00,,BKN120,0.00,VWS V14.00,2013-05-27 06:31:00,
2013-05-27 01:36:00,64.0,59.4,29.99,SSE,156,0.0,1.0,85,0.00,,BKN120,0.00,VWS V14.00,2013-05-27 06:36:00,
2013-05-27 01:41:00,63.8,59.2,29.99,SSE,156,0.0,1.0,85,0.00,,BKN120,0.00,VWS V14.00,2013-05-27 06:41:00,
2013-05-27 01:46:00,63.7,59.1,29.99,SSE,156,0.0,1.0,85,0.00,,BKN120,0.00,VWS V14.00,2013-05-27 06:46:00,
2013-05-27 01:51:00,63.8,59.2,29.99,SSE,156,0.0,1.0,85,0.00,,BKN120,0.00,VWS V14.00,2013-05-27 06:51:00,
2013-05-27 01:56:00,64.0,59.4,29.99,SSE,156,0.0,1.0,85,0.00,,BKN120,0.00,VWS V14.00,2013-05-27 06:56:00,
2013-05-27 02:00:00,63.8,59.2,29.99,SSE,156,0.0,1.0,85,0.00,,OVC030,0.00,VWS V14.00,2013-05-27 07:00:00,
2013-05-27 02:01:00,64.1,59.2,29.99,SSE,156,0.0,1.0,84,0.00,,SCT120,0.00,VWS V14.00,2013-05-27 07:01:00,
2013-05-27 02:06:00,64.2,59.3,29.99,SSE,156,0.0,1.0,84,0.00,,SCT120,0.00,VWS V14.00,2013-05-27 07:06:00,
2013-05-27 02:10:00,64.3,59.4,29.99,SSE,156,0.0,1.0,84,0.00,,SCT120,0.00,VWS V14.00,2013-05-27 07:10:00,
2013-05-27 02:15:00,64.2,59.3,29.98,SSE,156,0.0,2.0,84,0.00,,SCT120,0.00,VWS V14.00,2013-05-27 07:15:00,
2013-05-27 02:20:00,64.1,59.2,29.98,SSE,156,1.0,2.0,84,0.00,,CLR,0.00,VWS V14.00,2013-05-27 07:20:00,
2013-05-27 02:25:00,64.1,59.2,29.98,SSE,156,0.0,1.0,84,0.00,,CLR,0.00,VWS V14.00,2013-05-27 07:25:00,
2013-05-27 02:30:00,64.0,59.1,29.98,SSE,156,0.0,1.0,84,0.00,,CLR,0.00,VWS V14.00,2013-05-27 07:30:00,
2013-05-27 02:35:00,63.9,59.0,29.98,SSE,156,0.0,1.0,84,0.00,,CLR,0.00,VWS V14.00,2013-05-27 07:35:00,
2013-05-27 02:40:00,63.8,58.9,29.98,SSE,156,0.0,1.0,84,0.00,,SCT120,0.00,VWS V14.00,2013-05-27 07:40:00,
2013-05-27 02:45:00,63.7,58.8,29.98,SSE,156,0.0,1.0,84,0.00,,SCT120,0.00,VWS V14.00,2013-05-27 07:45:00,
2013-05-27 02:50:00,63.5,58.6,29.98,SSE,156,0.0,1.0,84,0.00,,SCT120,0.00,VWS V14.00,2013-05-27 07:50:00,
2013-05-27 02:55:00,63.4,58.8,29.98,SSE,156,0.0,0.0,85,0.00,,SCT120,0.00,VWS V14.00,2013-05-27 07:55:00,
2013-05-27 03:00:00,63.2,58.6,29.98,SSE,156,0.0,1.0,85,0.00,,SCT120,0.00,VWS V14.00,2013-05-27 08:00:00,
2013-05-27 03:05:00,63.0,58.4,29.98,SSE,156,0.0,1.0,85,0.00,,SCT120,0.00,VWS V14.00,2013-05-27 08:05:00,
2013-05-27 03:10:00,62.9,58.3,29.98,SSE,156,0.0,1.0,85,0.00,,SCT120,0.00,VWS V14.00,2013-05-27 08:10:00,
2013-05-27 03:15:00,62.8,58.6,29.98,SSE,156,0.0,1.0,86,0.00,,SCT120,0.00,VWS V14.00,2013-05-27 08:15:00,
2013-05-27 03:20:00,62.6,58.4,29.98,SSE,156,0.0,1.0,86,0.00,,CLR,0.00,VWS V14.00,2013-05-27 08:20:00,
2013-05-27 03:25:00,62.6,58.4,29.98,SSE,156,0.0,1.0,86,0.00,,CLR,0.00,VWS V14.00,2013-05-27 08:25:00,
2013-05-27 03:30:00,62.6,58.4,29.98,SSE,156,0.0,1.0,86,0.00,,CLR,0.00,VWS V14.00,2013-05-27 08:30:00,
2013-05-27 03:35:00,62.5,58.3,29.98,SSE,156,0.0,2.0,86,0.00,,CLR,0.00,VWS V14.00,2013-05-27 08:35:00,
2013-05-27 03:40:00,62.5,58.3,29.98,SSE,156,0.0,2.0,86,0.00,,CLR,0.00,VWS V14.00,2013-05-27 08:40:00,
2013-05-27 03:45:00,62.5,58.6,29.97,SSE,156,0.0,2.0,87,0.00,,CLR,0.00,VWS V14.00,2013-05-27 08:45:00,
2013-05-27 03:50:00,62.6,58.7,29.97,SSE,156,0.0,2.0,87,0.00,,CLR,0.00,VWS V14.00,2013-05-27 08:50:00,
2013-05-27 03:55:00,62.8,58.9,29.97,SSE,156,1.0,1.0,87,0.00,,CLR,0.00,VWS V14.00,2013-05-27 08:55:00,
2013-05-27 04:00:00,63.1,58.8,29.97,SSE,156,0.0,2.0,86,0.00,,BKN048,0.00,VWS V14.00,2013-05-27 09:00:00,
2013-05-27 04:05:00,63.3,59.0,29.98,SSE,156,0.0,2.0,86,0.00,,BKN048,0.00,VWS V14.00,2013-05-27 09:05:00,
2013-05-27 04:10:00,63.5,59.2,29.98,SSE,156,0.0,2.0,86,0.00,,BKN048,0.00,VWS V14.00,2013-05-27 09:10:00,
2013-05-27 04:15:00,63.6,59.0,29.98,SSE,156,0.0,2.0,85,0.00,,BKN048,0.00,VWS V14.00,2013-05-27 09:15:00,
2013-05-27 04:20:00,63.5,58.9,29.98,SSE,156,0.0,2.0,85,0.00,,SCT120,0.00,VWS V14.00,2013-05-27 09:20:00,
2013-05-27 04:25:00,63.4,58.8,29.98,SSE,156,0.0,0.0,85,0.00,,SCT120,0.00,VWS V14.00,2013-05-27 09:25:00,
2013-05-27 04:30:00,63.5,58.9,29.98,SSE,156,0.0,2.0,85,0.00,,OVC030,0.00,VWS V14.00,2013-05-27 09:30:00,
2013-05-27 04:33:00,63.1,58.5,29.98,SSE,156,0.0,1.0,85,0.00,,SCT120,0.00,VWS V14.00,2013-05-27 09:33:00,
2013-05-27 04:38:00,63.0,58.4,29.98,SSE,156,0.0,2.0,85,0.00,,CLR,0.00,VWS V14.00,2013-05-27 09:38:00,
2013-05-27 04:43:00,62.9,58.3,29.97,SSE,156,0.0,2.0,85,0.00,,CLR,0.00,VWS V14.00,2013-05-27 09:43:00,
2013-05-27 04:48:00,62.8,58.6,29.97,SSE,156,0.0,2.0,86,0.00,,CLR,0.00,VWS V14.00,2013-05-27 09:48:00,
2013-05-27 04:53:00,62.8,58.6,29.97,SSE,156,0.0,2.0,86,0.00,,CLR,0.00,VWS V14.00,2013-05-27 09:53:00,
2013-05-27 04:58:00,62.9,58.7,29.97,SSE,156,0.0,2.0,86,0.00,,CLR,0.00,VWS V14.00,2013-05-27 09:58:00,
2013-05-27 05:00:00,62.8,58.6,29.97,SSE,156,1.0,2.0,86,0.00,,OVC030,0.00,VWS V14.00,2013-05-27 10:00:00,
2013-05-27 05:03:00,63.0,58.8,29.97,SSE,156,0.0,2.0,86,0.00,,CLR,0.00,VWS V14.00,2013-05-27 10:03:00,
2013-05-27 05:08:00,63.1,58.8,29.97,SSE,156,0.0,2.0,86,0.00,,CLR,0.00,VWS V14.00,2013-05-27 10:08:00,
2013-05-27 05:13:00,63.2,59.0,29.97,SSE,156,0.0,2.0,86,0.00,,CLR,0.00,VWS V14.00,2013-05-27 10:13:00,
2013-05-27 05:18:00,63.3,58.7,29.97,SSE,156,0.0,4.0,85,0.00,,CLR,0.00,VWS V14.00,2013-05-27 10:18:00,
2013-05-27 05:23:00,63.4,58.8,29.97,SSE,156,0.0,4.0,85,0.00,,CLR,0.00,VWS V14.00,2013-05-27 10:23:00,
2013-05-27 05:28:00,63.3,58.7,29.97,SSE,156,0.0,4.0,85,0.00,,CLR,0.00,VWS V14.00,2013-05-27 10:28:00,
2013-05-27 05:30:00,63.3,58.7,29.97,SSE,156,0.0,4.0,85,0.00,,OVC030,0.00,VWS V14.00,2013-05-27 10:30:00,
2013-05-27 05:33:00,63.2,58.6,29.97,SSE,156,1.0,4.0,85,0.00,,CLR,0.00,VWS V14.00,2013-05-27 10:33:00,
2013-05-27 05:38:00,63.1,58.5,29.96,SSE,156,1.0,4.0,85,0.00,,CLR,0.00,VWS V14.00,2013-05-27 10:38:00,
2013-05-27 05:43:00,63.1,58.5,29.96,SSE,156,0.0,4.0,85,0.00,,CLR,0.00,VWS V14.00,2013-05-27 10:43:00,
2013-05-27 05:48:00,63.0,58.4,29.96,SSE,156,2.0,2.0,85,0.00,,CLR,0.00,VWS V14.00,2013-05-27 10:48:00,
2013-05-27 05:53:00,62.9,58.3,29.96,SSE,156,0.0,1.0,85,0.00,,CLR,0.00,VWS V14.00,2013-05-27 10:53:00,
2013-05-27 05:58:00,62.9,58.3,29.96,SSE,156,1.0,2.0,85,0.00,,CLR,0.00,VWS V14.00,2013-05-27 10:58:00,
2013-05-27 06:00:00,63.0,58.4,29.96,SSE,156,0.0,2.0,85,0.00,,OVC030,0.00,VWS V14.00,2013-05-27 11:00:00,
2013-05-27 06:03:00,63.0,58.4,29.96,SSE,156,0.0,4.0,85,0.00,,CLR,0.00,VWS V14.00,2013-05-27 11:03:00,
2013-05-27 06:08:00,63.2,58.3,29.96,SSE,156,0.0,4.0,84,0.00,,CLR,0.00,VWS V14.00,2013-05-27 11:08:00,
2013-05-27 06:13:00,63.4,58.5,29.96,SSE,156,0.0,4.0,84,0.00,,CLR,0.00,VWS V14.00,2013-05-27 11:13:00,
2013-05-27 06:18:00,63.5,58.6,29.95,SSE,156,1.0,4.0,84,0.00,,CLR,0.00,VWS V14.00,2013-05-27 11:18:00,
2013-05-27 06:23:00,63.7,58.5,29.95,SSE,161,4.0,4.0,83,0.00,,CLR,0.00,VWS V14.00,2013-05-27 11:23:00,
2013-05-27 06:28:00,64.0,58.7,29.94,ESE,117,1.0,4.0,83,0.00,,CLR,0.00,VWS V14.00,2013-05-27 11:28:00,
2013-05-27 06:30:00,63.6,58.7,29.95,SSE,156,1.0,4.0,84,0.00,,OVC030,0.00,VWS V14.00,2013-05-27 11:30:00,
2013-05-27 06:33:00,64.2,58.9,29.94,South,184,1.0,5.0,83,0.00,,CLR,0.00,VWS V14.00,2013-05-27 11:33:00,
2013-05-27 06:38:00,64.3,59.0,29.94,SSW,202,3.0,5.0,83,0.00,,CLR,0.00,VWS V14.00,2013-05-27 11:38:00,
2013-05-27 06:43:00,64.5,59.2,29.94,SSW,202,1.0,5.0,83,0.00,,CLR,0.00,VWS V14.00,2013-05-27 11:43:00,
2013-05-27 06:48:00,64.4,59.1,29.93,SSW,202,2.0,5.0,83,0.00,,CLR,0.00,VWS V14.00,2013-05-27 11:48:00,
2013-05-27 06:53:00,64.4,59.1,29.93,SSW,200,1.0,2.0,83,0.00,,CLR,0.00,VWS V14.00,2013-05-27 11:53:00,
2013-05-27 06:58:00,64.4,59.1,29.93,SSW,200,1.0,2.0,83,0.00,,CLR,0.00,VWS V14.00,2013-05-27 11:58:00,
2013-05-27 07:00:00,64.4,59.1,29.93,SSW,200,1.0,5.0,83,0.00,,OVC030,0.00,VWS V14.00,2013-05-27 12:00:00,
2013-05-27 07:03:00,64.3,59.0,29.93,SSW,202,1.0,4.0,83,0.00,,CLR,0.00,VWS V14.00,2013-05-27 12:03:00,
2013-05-27 07:08:00,64.3,59.0,29.92,SSW,202,0.0,4.0,83,0.00,,CLR,0.00,VWS V14.00,2013-05-27 12:08:00,
2013-05-27 07:13:00,64.5,59.2,29.92,SSW,202,0.0,4.0,83,0.00,,CLR,0.00,VWS V14.00,2013-05-27 12:13:00,
2013-05-27 07:18:00,64.7,59.4,29.92,SSW,198,3.0,4.0,83,0.00,,CLR,0.00,VWS V14.00,2013-05-27 12:18:00,
2013-05-27 07:23:00,65.3,60.0,29.92,SSW,198,1.0,2.0,83,0.00,,CLR,0.00,VWS V14.00,2013-05-27 12:23:00,
2013-05-27 07:28:00,66.1,60.5,29.92,SSW,198,0.0,3.0,82,0.00,,CLR,0.00,VWS V14.00,2013-05-27 12:28:00,
2013-05-27 07:30:00,65.0,59.7,29.93,SSW,198,2.0,4.0,83,0.00,,OVC030,0.00,VWS V14.00,2013-05-27 12:30:00,
2013-05-27 07:33:00,66.8,60.8,29.92,SSW,201,2.0,3.0,81,0.00,,CLR,0.00,VWS V14.00,2013-05-27 12:33:00,
2013-05-27 07:38:00,67.5,61.5,29.92,SSW,201,1.0,4.0,81,0.00,,CLR,0.00,VWS V14.00,2013-05-27 12:38:00,
2013-05-27 07:43:00,68.4,61.6,29.92,SSW,201,2.0,4.0,79,0.00,,CLR,0.00,VWS V14.00,2013-05-27 12:43:00,
2013-05-27 07:48:00,68.7,61.9,29.93,West,259,2.0,6.0,79,0.00,,CLR,0.00,VWS V14.00,2013-05-27 12:48:00,
2013-05-27 07:53:00,68.6,61.8,29.93,SW,215,1.0,4.0,79,0.00,,CLR,0.00,VWS V14.00,2013-05-27 12:53:00,
2013-05-27 07:58:00,68.4,61.6,29.93,WSW,253,1.0,5.0,79,0.00,,CLR,0.00,VWS V14.00,2013-05-27 12:58:00,
2013-05-27 08:00:00,68.6,61.8,29.93,SW,215,1.0,9.0,79,0.00,,OVC030,0.00,VWS V14.00,2013-05-27 13:00:00,
2013-05-27 08:03:00,68.4,61.6,29.93,WSW,253,2.0,5.0,79,0.00,,CLR,0.00,VWS V14.00,2013-05-27 13:03:00,
2013-05-27 08:08:00,68.6,62.2,29.93,SSW,210,1.0,5.0,80,0.00,,CLR,0.00,VWS V14.00,2013-05-27 13:08:00,
2013-05-27 08:13:00,69.0,62.6,29.93,SSW,211,1.0,5.0,80,0.00,,CLR,0.00,VWS V14.00,2013-05-27 13:13:00,
2013-05-27 08:18:00,69.3,62.5,29.93,WSW,241,0.0,5.0,79,0.00,,CLR,0.00,VWS V14.00,2013-05-27 13:18:00,
2013-05-27 08:23:00,69.5,62.7,29.93,WSW,245,0.0,2.0,79,0.00,,CLR,0.00,VWS V14.00,2013-05-27 13:23:00,
2013-05-27 08:28:00,69.6,62.8,29.93,WSW,256,4.0,4.0,79,0.00,,CLR,0.00,VWS V14.00,2013-05-27 13:28:00,
2013-05-27 08:30:00,69.4,62.6,29.93,WSW,241,2.0,5.0,79,0.00,,OVC030,0.00,VWS V14.00,2013-05-27 13:30:00,
2013-05-27 08:33:00,69.7,63.3,29.93,WSW,248,2.0,4.0,80,0.00,,CLR,0.00,VWS V14.00,2013-05-27 13:33:00,
2013-05-27 08:38:00,69.9,62.7,29.93,WSW,248,2.0,5.0,78,0.00,,CLR,0.00,VWS V14.00,2013-05-27 13:38:00,
2013-05-27 08:43:00,70.1,63.3,29.93,SW,218,0.0,6.0,79,0.00,,CLR,0.00,VWS V14.00,2013-05-27 13:43:00,
2013-05-27 08:48:00,70.3,63.5,29.93,SSW,209,1.0,6.0,79,0.00,,CLR,0.00,VWS V14.00,2013-05-27 13:48:00,
2013-05-27 08:53:00,70.6,64.1,29.94,SW,224,1.0,3.0,80,0.00,,CLR,0.00,VWS V14.00,2013-05-27 13:53:00,
2013-05-27 08:58:00,71.1,64.6,29.94,SW,224,2.0,3.0,80,0.00,,CLR,0.00,VWS V14.00,2013-05-27 13:58:00,
2013-05-27 09:00:00,70.5,64.0,29.93,SSW,209,0.0,6.0,80,0.00,,OVC030,0.00,VWS V14.00,2013-05-27 14:00:00,
2013-05-27 09:03:00,71.4,64.6,29.93,WSW,255,4.0,5.0,79,0.00,,CLR,0.00,VWS V14.00,2013-05-27 14:03:00,
2013-05-27 09:08:00,71.7,64.1,29.94,SW,234,1.0,6.0,77,0.00,,CLR,0.00,VWS V14.00,2013-05-27 14:08:00,
2013-05-27 09:13:00,72.0,64.8,29.94,WSW,252,3.0,6.0,78,0.00,,CLR,0.00,VWS V14.00,2013-05-27 14:13:00,
2013-05-27 09:18:00,72.4,65.2,29.94,WSW,240,4.0,6.0,78,0.00,,CLR,0.00,VWS V14.00,2013-05-27 14:18:00,
2013-05-27 09:23:00,72.8,65.2,29.93,WSW,242,2.0,6.0,77,0.00,,CLR,0.00,VWS V14.00,2013-05-27 14:23:00,
2013-05-27 09:28:00,73.3,66.0,29.93,SW,225,3.0,6.0,78,0.00,,CLR,0.00,VWS V14.00,2013-05-27 14:28:00,
2013-05-27 09:30:00,72.6,65.3,29.94,WSW,243,3.0,6.0,78,0.00,,OVC030,0.00,VWS V14.00,2013-05-27 14:30:00,
2013-05-27 09:33:00,73.6,66.7,29.93,West,263,0.0,7.0,79,0.00,,CLR,0.00,VWS V14.00,2013-05-27 14:33:00,
2013-05-27 09:38:00,74.3,66.6,29.93,SSW,209,3.0,9.0,77,0.00,,CLR,0.00,VWS V14.00,2013-05-27 14:38:00,
2013-05-27 09:43:00,75.1,67.8,29.93,West,269,0.0,9.0,78,0.00,,CLR,0.00,VWS V14.00,2013-05-27 14:43:00,
2013-05-27 09:48:00,75.8,67.7,29.93,WSW,238,5.0,9.0,76,0.00,,CLR,0.00,VWS V14.00,2013-05-27 14:48:00,
2013-05-27 09:53:00,76.1,66.8,29.93,West,274,7.0,7.0,73,0.00,,CLR,0.00,VWS V14.00,2013-05-27 14:53:00,
2013-05-27 09:58:00,76.5,69.1,29.93,West,259,2.0,8.0,78,0.00,,CLR,0.00,VWS V14.00,2013-05-27 14:58:00,
2013-05-27 10:00:00,75.9,67.0,29.93,WSW,238,2.0,12.0,74,0.00,,OVC030,0.00,VWS V14.00,2013-05-27 15:00:00,
2013-05-27 10:03:00,77.0,69.2,29.93,West,280,5.0,8.0,77,0.00,,CLR,0.00,VWS V14.00,2013-05-27 15:03:00,
2013-05-27 10:08:00,77.5,68.2,29.92,WSW,248,3.0,8.0,73,0.00,,CLR,0.00,VWS V14.00,2013-05-27 15:08:00,
2013-05-27 10:13:00,77.6,68.3,29.92,SW,227,1.0,8.0,73,0.00,,CLR,0.00,VWS V14.00,2013-05-27 15:13:00,
2013-05-27 10:18:00,77.6,68.7,29.92,WSW,238,5.0,8.0,74,0.00,,CLR,0.00,VWS V14.00,2013-05-27 15:18:00,
2013-05-27 10:23:00,77.8,69.6,29.92,West,277,4.0,6.0,76,0.00,,CLR,0.00,VWS V14.00,2013-05-27 15:23:00,
2013-05-27 10:28:00,78.3,68.9,29.92,West,271,0.0,6.0,73,0.00,,CLR,0.00,VWS V14.00,2013-05-27 15:28:00,
2013-05-27 10:30:00,77.7,68.8,29.92,West,267,5.0,8.0,74,0.00,,OVC030,0.00,VWS V14.00,2013-05-27 15:30:00,
2013-05-27 10:32:00,78.5,69.1,29.91,WSW,246,0.0,7.0,73,0.00,,CLR,0.00,VWS V14.00,2013-05-27 15:32:00,
2013-05-27 10:37:00,78.8,69.4,29.91,SW,221,3.0,7.0,73,0.00,,CLR,0.00,VWS V14.00,2013-05-27 15:37:00,
2013-05-27 10:42:00,78.9,69.1,29.91,SSW,212,3.0,12.0,72,0.00,,CLR,0.00,VWS V14.00,2013-05-27 15:42:00,
2013-05-27 10:47:00,79.1,68.1,29.91,WSW,254,3.0,12.0,69,0.00,,CLR,0.00,VWS V14.00,2013-05-27 15:47:00,
2013-05-27 10:52:00,79.5,70.1,29.91,SSW,198,4.0,5.0,73,0.00,,CLR,0.00,VWS V14.00,2013-05-27 15:52:00,
2013-05-27 10:57:00,79.6,68.5,29.90,SW,222,4.0,7.0,69,0.00,,CLR,0.00,VWS V14.00,2013-05-27 15:57:00,
2013-05-27 11:00:00,79.3,69.5,29.91,SW,216,3.0,12.0,72,0.00,,OVC030,0.00,VWS V14.00,2013-05-27 16:00:00,
2013-05-27 11:02:00,79.6,68.5,29.90,SSW,196,12.0,12.0,69,0.00,,CLR,0.00,VWS V14.00,2013-05-27 16:02:00,
2013-05-27 11:07:00,79.6,70.6,29.90,WNW,290,6.0,17.0,74,0.00,,CLR,0.00,VWS V14.00,2013-05-27 16:07:00,
2013-05-27 11:12:00,80.1,68.6,29.90,SW,222,3.0,17.0,68,0.00,,CLR,0.00,VWS V14.00,2013-05-27 16:12:00,
2013-05-27 11:17:00,80.0,69.3,29.89,SW,218,3.0,17.0,70,0.00,,CLR,0.00,VWS V14.00,2013-05-27 16:17:00,
2013-05-27 11:22:00,80.1,69.4,29.89,SW,229,1.0,4.0,70,0.00,,CLR,0.00,VWS V14.00,2013-05-27 16:22:00,
2013-05-27 11:27:00,80.4,68.4,29.88,South,185,2.0,6.0,67,0.00,,CLR,0.00,VWS V14.00,2013-05-27 16:27:00,
2013-05-27 11:30:00,80.0,68.9,29.89,SW,229,4.0,17.0,69,0.00,,OVC030,0.00,VWS V14.00,2013-05-27 16:30:00,
2013-05-27 11:32:00,80.6,68.2,29.88,SW,234,4.0,7.0,66,0.00,,CLR,0.00,VWS V14.00,2013-05-27 16:32:00,
2013-05-27 11:37:00,80.5,68.5,29.88,WNW,283,4.0,10.0,67,0.00,,CLR,0.00,VWS V14.00,2013-05-27 16:37:00,
2013-05-27 11:42:00,80.6,68.2,29.88,SW,225,5.0,15.0,66,0.00,,CLR,0.00,VWS V14.00,2013-05-27 16:42:00,
2013-05-27 11:47:00,81.0,69.4,29.88,SW,236,3.0,15.0,68,0.00,,CLR,0.00,VWS V14.00,2013-05-27 16:47:00,
2013-05-27 11:52:00,81.4,69.8,29.88,South,184,5.0,7.0,68,0.00,,CLR,0.00,VWS V14.00,2013-05-27 16:52:00,
2013-05-27 11:57:00,81.4,68.5,29.87,WSW,248,2.0,14.0,65,0.00,,CLR,0.00,VWS V14.00,2013-05-27 16:57:00,
2013-05-27 12:00:00,81.4,69.8,29.88,WSW,245,4.0,15.0,68,0.00,,OVC030,0.00,VWS V14.00,2013-05-27 17:00:00,
2013-05-27 12:02:00,81.2,67.9,29.88,WSW,244,5.0,14.0,64,0.00,,CLR,0.00,VWS V14.00,2013-05-27 17:02:00,
2013-05-27 12:07:00,81.3,69.7,29.88,SW,232,0.0,14.0,68,0.00,,CLR,0.00,VWS V14.00,2013-05-27 17:07:00,
2013-05-27 12:12:00,81.8,69.8,29.88,West,264,4.0,14.0,67,0.00,,CLR,0.00,VWS V14.00,2013-05-27 17:12:00,
2013-05-27 12:17:00,82.0,69.1,29.88,SW,221,2.0,15.0,65,0.00,,CLR,0.00,VWS V14.00,2013-05-27 17:17:00,
2013-05-27 12:22:00,81.8,68.9,29.89,SW,226,5.0,8.0,65,0.00,,CLR,0.00,VWS V14.00,2013-05-27 17:22:00,
2013-05-27 12:27:00,81.6,69.6,29.89,SW,228,3.0,8.0,67,0.00,,CLR,0.00,VWS V14.00,2013-05-27 17:27:00,
2013-05-27 12:30:00,81.8,68.4,29.89,WSW,255,5.0,15.0,64,0.00,,OVC030,0.00,VWS V14.00,2013-05-27 17:30:00,
2013-05-27 12:32:00,82.1,70.5,29.89,SSE,160,1.0,8.0,68,0.00,,CLR,0.00,VWS V14.00,2013-05-27 17:32:00,
2013-05-27 12:37:00,82.8,69.8,29.88,WSW,250,7.0,10.0,65,0.00,,CLR,0.00,VWS V14.00,2013-05-27 17:37:00,
2013-05-27 12:42:00,82.9,69.0,29.88,SW,225,3.0,13.0,63,0.00,,CLR,0.00,VWS V14.00,2013-05-27 17:42:00,
2013-05-27 12:47:00,82.7,67.9,29.88,WSW,254,6.0,13.0,61,0.00,,CLR,0.00,VWS V14.00,2013-05-27 17:47:00,
2013-05-27 12:52:00,82.3,67.5,29.89,SW,222,4.0,9.0,61,0.00,,CLR,0.00,VWS V14.00,2013-05-27 17:52:00,
2013-05-27 12:57:00,82.5,69.1,29.88,SSW,209,4.0,13.0,64,0.00,,CLR,0.00,VWS V14.00,2013-05-27 17:57:00,
2013-05-27 13:00:00,82.4,69.0,29.89,ESE,122,9.0,13.0,64,0.00,,OVC030,0.00,VWS V14.00,2013-05-27 18:00:00,
2013-05-27 13:02:00,82.5,69.1,29.88,SSW,206,4.0,15.0,64,0.00,,CLR,0.00,VWS V14.00,2013-05-27 18:02:00,
2013-05-27 13:07:00,82.7,68.8,29.88,WSW,250,3.0,15.0,63,0.00,,CLR,0.00,VWS V14.00,2013-05-27 18:07:00,
2013-05-27 13:12:00,81.7,66.5,29.89,SSW,212,4.0,15.0,60,0.00,,CLR,0.00,VWS V14.00,2013-05-27 18:12:00,
2013-05-27 13:17:00,80.6,66.4,29.88,West,268,7.0,15.0,62,0.00,,CLR,0.00,VWS V14.00,2013-05-27 18:17:00,
2013-05-27 13:22:00,80.3,67.5,29.88,WSW,244,5.0,7.0,65,0.00,,SCT060,0.00,VWS V14.00,2013-05-27 18:22:00,
2013-05-27 13:27:00,80.2,66.9,29.88,West,259,5.0,13.0,64,0.00,,SCT060,0.00,VWS V14.00,2013-05-27 18:27:00,
2013-05-27 13:30:00,80.3,67.0,29.88,West,262,3.0,15.0,64,0.00,,OVC030,0.00,VWS V14.00,2013-05-27 18:30:00,
2013-05-27 13:32:00,80.3,67.0,29.88,SW,225,4.0,13.0,64,0.00,,SCT060,0.00,VWS V14.00,2013-05-27 18:32:00,
2013-05-27 13:37:00,80.5,66.3,29.88,SSW,206,2.0,13.0,62,0.00,,SCT060,0.00,VWS V14.00,2013-05-27 18:37:00,
2013-05-27 13:42:00,81.1,67.3,29.88,WSW,246,3.0,13.0,63,0.00,,SCT060,0.00,VWS V14.00,2013-05-27 18:42:00,
2013-05-27 13:47:00,81.9,68.5,29.88,South,175,7.0,13.0,64,0.00,,SCT060,0.00,VWS V14.00,2013-05-27 18:47:00,
2013-05-27 13:52:00,82.6,66.3,29.88,SW,221,4.0,10.0,58,0.00,,SCT060,0.00,VWS V14.00,2013-05-27 18:52:00,
2013-05-27 13:57:00,82.6,68.3,29.87,SSW,197,2.0,10.0,62,0.00,,SCT060,0.00,VWS V14.00,2013-05-27 18:57:00,
2013-05-27 14:00:00,82.5,69.1,29.88,WNW,298,7.0,13.0,64,0.00,,OVC030,0.00,VWS V14.00,2013-05-27 19:00:00,
2013-05-27 14:02:00,82.7,66.9,29.87,SW,230,6.0,10.0,59,0.00,,SCT080,0.00,VWS V14.00,2013-05-27 19:02:00,
2013-05-27 14:07:00,82.9,67.6,29.87,SW,232,3.0,10.0,60,0.00,,SCT080,0.00,VWS V14.00,2013-05-27 19:07:00,
2013-05-27 14:12:00,82.4,67.1,29.86,WSW,257,3.0,13.0,60,0.00,,SCT080,0.00,VWS V14.00,2013-05-27 19:12:00,
2013-05-27 14:17:00,82.3,68.0,29.86,SW,225,1.0,13.0,62,0.00,,SCT080,0.00,VWS V14.00,2013-05-27 19:17:00,
2013-05-27 14:22:00,82.0,66.8,29.86,WSW,246,1.0,8.0,60,0.00,,CLR,0.00,VWS V14.00,2013-05-27 19:22:00,
2013-05-27 14:27:00,82.1,66.8,29.86,WSW,238,5.0,9.0,60,0.00,,CLR,0.00,VWS V14.00,2013-05-27 19:27:00,
2013-05-27 14:30:00,82.2,67.4,29.86,SW,233,5.0,13.0,61,0.00,,OVC030,0.00,VWS V14.00,2013-05-27 19:30:00,
2013-05-27 14:32:00,82.4,68.1,29.86,SW,222,7.0,10.0,62,0.00,,CLR,0.00,VWS V14.00,2013-05-27 19:32:00,
2013-05-27 14:37:00,82.4,67.6,29.86,SW,219,5.0,10.0,61,0.00,,CLR,0.00,VWS V14.00,2013-05-27 19:37:00,
2013-05-27 14:42:00,81.9,65.7,29.86,West,261,4.0,12.0,58,0.00,,CLR,0.00,VWS V14.00,2013-05-27 19:42:00,
2013-05-27 14:47:00,81.7,67.4,29.86,West,265,3.0,12.0,62,0.00,,CLR,0.00,VWS V14.00,2013-05-27 19:47:00,
2013-05-27 14:52:00,81.4,65.2,29.86,SW,215,3.0,8.0,58,0.00,,CLR,0.00,VWS V14.00,2013-05-27 19:52:00,
2013-05-27 14:57:00,80.9,65.2,29.86,SW,233,6.0,11.0,59,0.00,,CLR,0.00,VWS V14.00,2013-05-27 19:57:00,
2013-05-27 15:00:00,81.6,65.9,29.86,West,261,3.0,14.0,59,0.00,,OVC030,0.00,VWS V14.00,2013-05-27 20:00:00,
2013-05-27 15:02:00,80.4,65.7,29.85,SW,234,7.0,11.0,61,0.00,,CLR,0.00,VWS V14.00,2013-05-27 20:02:00,
2013-05-27 15:07:00,80.0,64.9,29.85,SSW,200,5.0,11.0,60,0.00,,CLR,0.00,VWS V14.00,2013-05-27 20:07:00,
2013-05-27 15:12:00,80.1,65.0,29.85,West,268,4.0,11.0,60,0.00,,CLR,0.00,VWS V14.00,2013-05-27 20:12:00,
2013-05-27 15:17:00,80.1,65.0,29.85,WSW,250,4.0,11.0,60,0.00,,CLR,0.00,VWS V14.00,2013-05-27 20:17:00,
2013-05-27 15:22:00,80.3,65.6,29.84,SW,223,4.0,5.0,61,0.00,,CLR,0.00,VWS V14.00,2013-05-27 20:22:00,
2013-05-27 15:27:00,80.3,66.1,29.84,SW,225,4.0,7.0,62,0.00,,CLR,0.00,VWS V14.00,2013-05-27 20:27:00,
2013-05-27 15:30:00,80.3,65.2,29.85,SW,228,5.0,11.0,60,0.00,,OVC030,0.00,VWS V14.00,2013-05-27 20:30:00,
2013-05-27 15:32:00,80.5,64.4,29.84,SW,231,1.0,7.0,58,0.00,,CLR,0.00,VWS V14.00,2013-05-27 20:32:00,
2013-05-27 15:37:00,80.5,64.9,29.83,SW,234,4.0,9.0,59,0.00,,CLR,0.00,VWS V14.00,2013-05-27 20:37:00,
2013-05-27 15:42:00,80.6,66.8,29.83,West,263,1.0,9.0,63,0.00,,CLR,0.00,VWS V14.00,2013-05-27 20:42:00,
2013-05-27 15:47:00,80.5,66.8,29.83,WSW,238,6.0,9.0,63,0.00,,CLR,0.00,VWS V14.00,2013-05-27 20:47:00,
2013-05-27 15:52:00,80.4,67.1,29.83,South,184,3.0,6.0,64,0.00,,CLR,0.00,VWS V14.00,2013-05-27 20:52:00,
2013-05-27 15:57:00,80.2,65.5,29.83,WSW,242,3.0,7.0,61,0.00,,CLR,0.00,VWS V14.00,2013-05-27 20:57:00,
2013-05-27 16:00:00,80.4,66.2,29.83,SSW,213,3.0,9.0,62,0.00,,OVC030,0.00,VWS V14.00,2013-05-27 21:00:00,
2013-05-27 16:02:00,79.9,65.7,29.83,WSW,256,4.0,7.0,62,0.00,,CLR,0.00,VWS V14.00,2013-05-27 21:02:00,
2013-05-27 16:07:00,79.5,66.3,29.83,WSW,243,2.0,7.0,64,0.00,,CLR,0.00,VWS V14.00,2013-05-27 21:07:00,
2013-05-27 16:12:00,79.1,65.4,29.84,West,259,1.0,9.0,63,0.00,,CLR,0.00,VWS V14.00,2013-05-27 21:12:00,
2013-05-27 16:17:00,79.1,65.9,29.83,WNW,290,3.0,9.0,64,0.00,,CLR,0.00,VWS V14.00,2013-05-27 21:17:00,
2013-05-27 16:22:00,79.3,67.4,29.83,West,268,2.0,4.0,67,0.00,,CLR,0.00,VWS V14.00,2013-05-27 21:22:00,
2013-05-27 16:27:00,79.3,66.1,29.83,WSW,246,0.0,6.0,64,0.00,,CLR,0.00,VWS V14.00,2013-05-27 21:27:00,
2013-05-27 16:30:00,79.2,66.4,29.83,West,271,4.0,9.0,65,0.00,,OVC030,0.00,VWS V14.00,2013-05-27 21:30:00,
2013-05-27 16:32:00,79.4,66.6,29.82,WSW,245,2.0,6.0,65,0.00,,CLR,0.00,VWS V14.00,2013-05-27 21:32:00,
2013-05-27 16:37:00,79.5,67.6,29.82,WSW,245,1.0,6.0,67,0.00,,CLR,0.00,VWS V14.00,2013-05-27 21:37:00,
2013-05-27 16:42:00,79.6,66.8,29.83,WSW,252,1.0,6.0,65,0.00,,CLR,0.00,VWS V14.00,2013-05-27 21:42:00,
2013-05-27 16:47:00,79.5,66.7,29.83,West,263,2.0,6.0,65,0.00,,CLR,0.00,VWS V14.00,2013-05-27 21:47:00,
2013-05-27 16:52:00,79.1,65.9,29.83,WSW,256,1.0,3.0,64,0.00,,CLR,0.00,VWS V14.00,2013-05-27 21:52:00,
2013-05-27 16:57:00,79.1,66.3,29.83,SW,232,1.0,7.0,65,0.00,,CLR,0.00,VWS V14.00,2013-05-27 21:57:00,
2013-05-27 17:00:00,79.2,66.0,29.83,SW,236,1.0,6.0,64,0.00,,OVC030,0.00,VWS V14.00,2013-05-27 22:00:00,
2013-05-27 17:02:00,78.9,67.0,29.83,WSW,246,4.0,7.0,67,0.00,,SCT080,0.00,VWS V14.00,2013-05-27 22:02:00,
2013-05-27 17:07:00,78.7,66.8,29.83,SSW,209,1.0,7.0,67,0.00,,SCT080,0.00,VWS V14.00,2013-05-27 22:07:00,
2013-05-27 17:12:00,78.2,66.4,29.87,West,262,11.0,14.0,67,0.00,,SCT080,0.00,VWS V14.00,2013-05-27 22:12:00,
2013-05-27 17:17:00,75.5,63.4,29.90,SW,232,13.0,27.0,66,0.00,,SCT080,0.00,VWS V14.00,2013-05-27 22:17:00,
2013-05-27 17:22:00,71.7,63.7,29.91,NNW,339,11.0,24.0,76,0.00,,RA,0.00,VWS V14.00,2013-05-27 22:22:00,
2013-05-27 17:27:00,68.5,62.5,29.91,WSW,254,12.0,24.0,81,0.02,,RA,0.02,VWS V14.00,2013-05-27 22:27:00,
2013-05-27 17:30:00,72.8,62.9,29.91,WNW,290,19.0,27.0,71,0.00,,OVC030,0.00,VWS V14.00,2013-05-27 22:30:00,
2013-05-27 17:32:00,66.5,62.2,29.92,West,279,10.0,24.0,86,0.03,,RA,0.03,VWS V14.00,2013-05-27 22:32:00,
2013-05-27 17:37:00,65.3,62.0,29.92,West,268,8.0,24.0,89,0.06,,RA,0.06,VWS V14.00,2013-05-27 22:37:00,
2013-05-27 17:42:00,64.7,61.7,29.91,WSW,247,5.0,24.0,90,0.08,, +RA,0.08,VWS V14.00,2013-05-27 22:42:00,
2013-05-27 17:47:00,64.6,61.9,29.91,West,276,6.0,24.0,91,0.09,, +RA,0.09,VWS V14.00,2013-05-27 22:47:00,
2013-05-27 17:52:00,64.4,62.0,29.91,WNW,283,4.0,6.0,92,0.13,, +RA,0.13,VWS V14.00,2013-05-27 22:52:00,
2013-05-27 17:57:00,64.3,61.9,29.90,West,269,7.0,8.0,92,0.15,, +RA,0.15,VWS V14.00,2013-05-27 22:57:00,
2013-05-27 18:00:00,64.4,62.0,29.92,West,269,5.0,11.0,92,0.12,,OVC030,0.12,VWS V14.00,2013-05-27 23:00:00,
2013-05-27 18:02:00,64.2,61.8,29.90,West,277,2.0,8.0,92,0.16,,OVC019,0.16,VWS V14.00,2013-05-27 23:02:00,
2013-05-27 18:07:00,64.2,61.8,29.90,West,277,0.0,8.0,92,0.18,,OVC019,0.18,VWS V14.00,2013-05-27 23:07:00,
2013-05-27 18:12:00,64.3,62.2,29.89,West,277,0.0,8.0,93,0.20,,OVC019,0.20,VWS V14.00,2013-05-27 23:12:00,
2013-05-27 18:17:00,64.4,62.3,29.89,West,277,0.0,8.0,93,0.21,,OVC019,0.21,VWS V14.00,2013-05-27 23:17:00,
2013-05-27 18:22:00,64.4,62.3,29.89,West,277,0.0,1.0,93,0.22,,OVC065,0.22,VWS V14.00,2013-05-27 23:22:00,
2013-05-27 18:27:00,64.3,62.2,29.90,West,277,0.0,2.0,93,0.24,,OVC065,0.24,VWS V14.00,2013-05-27 23:27:00,
2013-05-27 18:30:00,64.4,62.3,29.89,West,277,0.0,8.0,93,0.22,,OVC030,0.22,VWS V14.00,2013-05-27 23:30:00,
2013-05-27 18:32:00,64.2,62.1,29.89,West,277,0.0,2.0,93,0.24,,OVC065,0.24,VWS V14.00,2013-05-27 23:32:00,
2013-05-27 18:37:00,64.2,62.1,29.89,West,277,0.0,2.0,93,0.26,,OVC065,0.26,VWS V14.00,2013-05-27 23:37:00,
2013-05-27 18:42:00,64.2,62.4,29.89,West,277,0.0,5.0,94,0.27,,OVC050,0.27,VWS V14.00,2013-05-27 23:42:00,
2013-05-27 18:47:00,64.2,62.4,29.89,West,277,0.0,5.0,94,0.28,,OVC050,0.28,VWS V14.00,2013-05-27 23:47:00,
2013-05-27 18:52:00,64.2,62.4,29.87,West,277,0.0,5.0,94,0.28,,OVC050,0.28,VWS V14.00,2013-05-27 23:52:00,
2013-05-27 18:57:00,64.3,62.5,29.87,West,277,0.0,1.0,94,0.30,,OVC050,0.30,VWS V14.00,2013-05-27 23:57:00,
2013-05-27 19:02:00,64.3,62.5,29.85,West,277,2.0,2.0,94,0.31,,OVC044,0.31,VWS V14.00,2013-05-28 00:02:00,
2013-05-27 19:07:00,64.3,62.5,29.85,SSE,150,2.0,7.0,94,0.32,,OVC044,0.32,VWS V14.00,2013-05-28 00:07:00,
2013-05-27 19:12:00,64.3,62.5,29.83,SSE,148,0.0,7.0,94,0.32,,OVC044,0.32,VWS V14.00,2013-05-28 00:12:00,
2013-05-27 19:17:00,64.3,62.5,29.80,SE,137,2.0,7.0,94,0.33,,OVC044,0.33,VWS V14.00,2013-05-28 00:17:00,
2013-05-27 19:22:00,64.2,62.4,29.78,WSW,242,3.0,4.0,94,0.12,,-RA,0.34,VWS V14.00,2013-05-28 00:22:00,
2013-05-27 19:27:00,64.1,62.3,29.75,SSW,201,4.0,6.0,94,0.13,,-RA,0.35,VWS V14.00,2013-05-28 00:27:00,
2013-05-27 19:30:00,64.2,62.4,29.78,SSW,205,4.0,7.0,94,0.34,,OVC030,0.34,VWS V14.00,2013-05-28 00:30:00,
2013-05-27 19:32:00,64.0,62.2,29.74,SE,146,2.0,6.0,94,0.14,,-RA,0.36,VWS V14.00,2013-05-28 00:32:00,
2013-05-27 19:37:00,63.9,62.1,29.72,SSW,206,2.0,13.0,94,0.14,,-RA,0.36,VWS V14.00,2013-05-28 00:37:00,
2013-05-27 19:42:00,63.8,62.0,29.71,ENE,68,1.0,13.0,94,0.15,,-RA,0.37,VWS V14.00,2013-05-28 00:42:00,
2013-05-27 19:47:00,63.8,62.0,29.75,NNE,24,5.0,13.0,94,0.16,,-RA,0.38,VWS V14.00,2013-05-28 00:47:00,
2013-05-27 19:52:00,63.7,62.0,29.76,East,95,4.0,6.0,94,0.04,,-RA,0.38,VWS V14.00,2013-05-28 00:52:00,
2013-05-27 19:57:00,63.7,62.0,29.76,East,95,0.0,6.0,94,0.05,,-RA,0.39,VWS V14.00,2013-05-28 00:57:00,
2013-05-27 20:00:00,63.7,61.9,29.76,NNE,28,4.0,13.0,94,0.16,,OVC030,0.38,VWS V14.00,2013-05-28 01:00:00,
2013-05-27 20:02:00,63.7,62.0,29.76,East,95,0.0,6.0,94,0.05,,CLR,0.39,VWS V14.00,2013-05-28 01:02:00,
2013-05-27 20:07:00,63.7,62.0,29.76,East,98,0.0,6.0,94,0.06,,CLR,0.40,VWS V14.00,2013-05-28 01:07:00,
2013-05-27 20:12:00,63.8,62.0,29.75,East,98,1.0,6.0,94,0.06,,CLR,0.40,VWS V14.00,2013-05-28 01:12:00,
2013-05-27 20:17:00,63.7,62.0,29.75,ESE,105,1.0,6.0,94,0.07,,CLR,0.41,VWS V14.00,2013-05-28 01:17:00,
2013-05-27 20:22:00,63.7,62.0,29.75,East,88,0.0,2.0,94,0.07,,CLR,0.41,VWS V14.00,2013-05-28 01:22:00,
2013-05-27 20:27:00,63.6,61.8,29.76,East,88,1.0,2.0,94,0.08,,CLR,0.42,VWS V14.00,2013-05-28 01:27:00,
2013-05-27 20:30:00,63.7,61.9,29.75,East,88,1.0,6.0,94,0.07,,OVC030,0.41,VWS V14.00,2013-05-28 01:30:00,
2013-05-27 20:32:00,63.6,61.8,29.77,East,88,2.0,2.0,94,0.08,,CLR,0.42,VWS V14.00,2013-05-28 01:32:00,
2013-05-27 20:37:00,63.5,62.0,29.77,East,88,0.0,2.0,95,0.08,,CLR,0.42,VWS V14.00,2013-05-28 01:37:00,
2013-05-27 20:42:00,63.6,62.2,29.77,East,88,0.0,3.0,95,0.09,,CLR,0.43,VWS V14.00,2013-05-28 01:42:00,
2013-05-27 20:47:00,63.6,62.2,29.78,East,88,1.0,3.0,95,0.09,,CLR,0.43,VWS V14.00,2013-05-28 01:47:00,
2013-05-27 20:52:00,63.6,62.2,29.78,East,88,1.0,1.0,95,0.06,,CLR,0.44,VWS V14.00,2013-05-28 01:52:00,
2013-05-27 20:57:00,63.6,62.2,29.79,East,88,0.0,3.0,95,0.06,,CLR,0.44,VWS V14.00,2013-05-28 01:57:00,
2013-05-27 21:00:00,63.6,62.2,29.78,East,88,0.0,3.0,95,0.10,,OVC030,0.44,VWS V14.00,2013-05-28 02:00:00,
2013-05-27 21:02:00,63.7,62.2,29.79,East,88,0.0,3.0,95,0.06,,CLR,0.44,VWS V14.00,2013-05-28 02:02:00,
2013-05-27 21:07:00,63.7,62.2,29.79,East,88,0.0,3.0,95,0.06,,CLR,0.44,VWS V14.00,2013-05-28 02:07:00,
2013-05-27 21:12:00,63.7,62.2,29.79,East,88,0.0,3.0,95,0.07,,CLR,0.45,VWS V14.00,2013-05-28 02:12:00,
2013-05-27 21:17:00,63.7,62.2,29.80,East,88,1.0,3.0,95,0.07,,CLR,0.45,VWS V14.00,2013-05-28 02:17:00,
2013-05-27 21:22:00,63.7,62.0,29.80,East,88,1.0,1.0,94,0.04,,CLR,0.45,VWS V14.00,2013-05-28 02:22:00,
2013-05-27 21:27:00,63.7,62.0,29.80,ESE,105,0.0,4.0,94,0.05,,CLR,0.46,VWS V14.00,2013-05-28 02:27:00,
2013-05-27 21:30:00,63.7,61.9,29.80,East,88,0.0,3.0,94,0.07,,OVC030,0.45,VWS V14.00,2013-05-28 02:30:00,
2013-05-27 21:32:00,63.7,62.0,29.80,ESE,109,1.0,4.0,94,0.05,,CLR,0.46,VWS V14.00,2013-05-28 02:32:00,
2013-05-27 21:37:00,63.7,62.2,29.80,ESE,109,0.0,4.0,95,0.05,,CLR,0.46,VWS V14.00,2013-05-28 02:37:00,
2013-05-27 21:42:00,63.8,62.3,29.80,North,5,2.0,4.0,95,0.05,,CLR,0.46,VWS V14.00,2013-05-28 02:42:00,
2013-05-27 21:47:00,63.8,62.3,29.81,South,186,1.0,4.0,95,0.05,,CLR,0.46,VWS V14.00,2013-05-28 02:47:00,
2013-05-27 21:52:00,63.9,62.4,29.81,South,186,0.0,2.0,95,0.03,,CLR,0.47,VWS V14.00,2013-05-28 02:52:00,
2013-05-27 21:57:00,64.0,62.5,29.81,South,186,1.0,2.0,95,0.03,,CLR,0.47,VWS V14.00,2013-05-28 02:57:00,
2013-05-27 22:00:00,63.9,62.4,29.81,South,186,0.0,4.0,95,0.06,,OVC030,0.47,VWS V14.00,2013-05-28 03:00:00,
2013-05-27 22:02:00,64.0,62.5,29.82,South,186,0.0,3.0,95,0.03,,CLR,0.47,VWS V14.00,2013-05-28 03:02:00,
2013-05-27 22:07:00,64.0,62.5,29.82,South,186,0.0,3.0,95,0.03,,CLR,0.47,VWS V14.00,2013-05-28 03:07:00,
2013-05-27 22:12:00,64.1,62.6,29.82,South,186,1.0,3.0,95,0.03,,CLR,0.47,VWS V14.00,2013-05-28 03:12:00,
2013-05-27 22:17:00,64.0,62.5,29.82,South,170,0.0,5.0,95,0.04,,CLR,0.48,VWS V14.00,2013-05-28 03:17:00,
2013-05-27 22:22:00,64.0,62.5,29.82,South,170,0.0,2.0,95,0.03,,CLR,0.48,VWS V14.00,2013-05-28 03:22:00,
2013-05-27 22:27:00,64.0,62.5,29.82,South,170,0.0,2.0,95,0.03,,CLR,0.48,VWS V14.00,2013-05-28 03:27:00,
2013-05-27 22:30:00,64.0,62.5,29.82,South,170,0.0,5.0,95,0.04,,OVC030,0.48,VWS V14.00,2013-05-28 03:30:00,
2013-05-27 22:32:00,64.0,62.5,29.83,ESE,103,0.0,4.0,95,0.03,,CLR,0.48,VWS V14.00,2013-05-28 03:32:00,
2013-05-27 22:37:00,64.0,62.5,29.83,ESE,111,0.0,4.0,95,0.03,,CLR,0.48,VWS V14.00,2013-05-28 03:37:00,
2013-05-27 22:42:00,64.0,62.5,29.83,ESE,111,1.0,4.0,95,0.03,,CLR,0.48,VWS V14.00,2013-05-28 03:42:00,
2013-05-27 22:47:00,64.0,62.5,29.83,SE,132,0.0,4.0,95,0.03,,CLR,0.48,VWS V14.00,2013-05-28 03:47:00,
2013-05-27 22:52:00,63.9,62.4,29.84,SE,132,1.0,1.0,95,0.01,,CLR,0.48,VWS V14.00,2013-05-28 03:52:00,
2013-05-27 22:57:00,63.9,62.4,29.84,SE,132,0.0,1.0,95,0.02,,CLR,0.49,VWS V14.00,2013-05-28 03:57:00,
2013-05-27 23:00:00,63.9,62.4,29.83,SE,132,0.0,4.0,95,0.03,,OVC030,0.48,VWS V14.00,2013-05-28 04:00:00,
2013-05-27 23:01:00,63.9,62.4,29.84,SE,132,0.0,1.0,95,0.02,,CLR,0.49,VWS V14.00,2013-05-28 04:01:00,
2013-05-27 23:06:00,63.9,62.4,29.84,SE,132,0.0,1.0,95,0.02,,CLR,0.49,VWS V14.00,2013-05-28 04:06:00,
2013-05-27 23:11:00,63.9,62.4,29.84,SE,132,1.0,1.0,95,0.02,,CLR,0.49,VWS V14.00,2013-05-28 04:11:00,
2013-05-27 23:16:00,64.0,62.5,29.84,SE,132,0.0,1.0,95,0.02,,CLR,0.49,VWS V14.00,2013-05-28 04:16:00,
2013-05-27 23:21:00,63.9,62.4,29.84,SE,131,1.0,4.0,95,0.02,,CLR,0.49,VWS V14.00,2013-05-28 04:21:00,
2013-05-27 23:26:00,64.0,62.5,29.84,SE,130,0.0,2.0,95,0.01,,CLR,0.49,VWS V14.00,2013-05-28 04:26:00,
2013-05-27 23:30:00,63.9,62.4,29.84,SE,131,0.0,4.0,95,0.02,,OVC030,0.49,VWS V14.00,2013-05-28 04:30:00,
2013-05-27 23:31:00,64.0,62.5,29.84,SE,130,0.0,2.0,95,0.01,,CLR,0.49,VWS V14.00,2013-05-28 04:31:00,
2013-05-27 23:36:00,63.9,62.4,29.84,SE,131,0.0,2.0,95,0.02,,CLR,0.50,VWS V14.00,2013-05-28 04:36:00,
2013-05-27 23:41:00,63.8,62.3,29.84,SE,130,0.0,2.0,95,0.02,,CLR,0.50,VWS V14.00,2013-05-28 04:41:00,
2013-05-27 23:46:00,63.8,62.3,29.84,SE,131,0.0,2.0,95,0.02,,CLR,0.50,VWS V14.00,2013-05-28 04:46:00,
2013-05-27 23:51:00,63.7,62.2,29.85,SE,138,0.0,5.0,95,0.02,,CLR,0.50,VWS V14.00,2013-05-28 04:51:00,
2013-05-27 23:56:00,63.7,62.2,29.85,SE,138,0.0,1.0,95,0.02,,CLR,0.00,VWS V14.00,2013-05-28 04:56:00,